Home > Weather > Alexandria > Past weeks

Flag for USA Past Weather in Alexandria, Virginia, USA — Yesterday and Last 2 Weeks

Now
84 °F

Partly sunny.


Feels Like: 86 °F
Forecast: 59 / 86 °F
Wind: 13 mph from South

Location: Reagan National Airport

Current Time: May 26, 2016 at 2:31:44 PM

Latest Report: May 26, 2016 at 1:52 PM


Visibility: 10 mi

Pressure: 30.06 "Hg

Humidity: 55%

Dew Point: 66 °F

Location of AlexandriaLocation

Past Weather in Alexandria — Graph

°F

Alexandria Temperature Yesterday

Maximum temperature yesterday: 86 °F (at 4:52 PM)
Minimum temperature yesterday: 61 °F (at 3:52 AM)
Average temperature yesterday: 73 °F

High & Low Weather Summary for the Past Weeks

 TemperatureHumidityPressure
High86 °F (May 25, 4:52 PM)97% (May 13, 12:00 PM)30.28 "Hg (May 13, 12:00 PM)
Low45 °F (May 16, 4:52 AM)28% (May 16, 3:52 PM)29.69 "Hg (May 14, 5:52 PM)
Average62 °F70%30.04 "Hg
* Reported May 11 12:52 PM — May 26 12:52 PM, Alexandria, Weather by CustomWeather, © 2016

Note: Actual official high and low records may vary slightly from our data, if they occured in-between our weather recording intervals... More about our weather records

Advertising

Alexandria Weather History for the Previous 24 Hours

Scroll right to see more
 ConditionsComfort  
Time TempWeatherWind HumidityBarometerVisibility
12:52 PM
Thu, May 26
82 °FPartly sunny.13 mph56%30.08 "Hg10 mi
11:52 AM81 °FPartly sunny.8 mph54%30.09 "Hg10 mi
10:52 AM77 °FHigh level clouds.10 mph58%30.10 "Hg10 mi
9:52 AM73 °FOvercast.9 mph69%30.12 "Hg10 mi
8:52 AM69 °FOvercast.8 mph76%30.13 "Hg10 mi
7:52 AM67 °FOvercast.5 mph81%30.14 "Hg10 mi
6:52 AM64 °FOvercast.No wind94%30.13 "Hg9 mi
5:52 AM63 °FPassing clouds.No wind93%30.12 "Hg9 mi
4:52 AM64 °FPassing clouds.3 mph90%30.11 "Hg10 mi
3:52 AM63 °FPassing clouds.5 mph93%30.11 "Hg10 mi
2:52 AM64 °FPassing clouds.6 mph90%30.10 "Hg10 mi
1:52 AM66 °FPassing clouds.6 mph84%30.11 "Hg10 mi
12:52 AM65 °FPassing clouds.8 mph87%30.11 "Hg10 mi
11:52 PM
Wed, May 25
67 °FPassing clouds.6 mph81%30.12 "Hg10 mi
10:52 PM68 °FPassing clouds.7 mph82%30.12 "Hg10 mi
9:52 PM69 °FPassing clouds.7 mph76%30.12 "Hg10 mi
8:52 PM74 °FPartly sunny.8 mph56%30.11 "Hg10 mi
7:52 PM78 °FPartly sunny.8 mph46%30.10 "Hg10 mi
6:52 PM84 °FPartly sunny.9 mph32%30.09 "Hg10 mi
5:52 PM85 °FPartly sunny.6 mph34%30.10 "Hg10 mi
4:52 PM86 °FPartly sunny.6 mph30%30.11 "Hg10 mi
3:52 PM85 °FPartly sunny.8 mph35%30.11 "Hg10 mi
2:52 PM85 °FPartly sunny.7 mph35%30.13 "Hg10 mi
Weather by CustomWeather, © 2016

See weather overviewHow to use our weather pages